Knows.nl

Technical website intelligence, screenshots, and crawl history.

Full Index

Showing up to 100 newest rows before ID 5737068.

IDDomainStatusLast visitURL
5737054 www.divyajaininteriors.com 200 2026-08-31 20:38:49 https://www.divyajaininteriors.com/
5737053 all.dewa222.work 200 2026-08-31 20:38:48 https://all.dewa222.work/
5737052 www.futuresightar.com 200 2026-08-31 20:38:47 https://www.futuresightar.com/
5737051 bananagayhouse.com 200 2026-08-31 20:38:46 https://bananagayhouse.com/
5737041 www.access.com.bd 200 2026-08-31 20:37:26 http://www.access.com.bd/
5737036 sobhealvand.ir 200 2026-08-31 20:37:07 http://sobhealvand.ir/
5737035 www.sobhealvand.ir 200 2026-08-31 20:37:04 http://www.sobhealvand.ir/
5737031 pejuangcuan.short.gy 403 2026-08-31 20:35:50 https://pejuangcuan.short.gy/
5737018 www.os-templates.com 200 2026-08-31 20:34:38 https://www.os-templates.com/
5737015 www.pfhub.com 200 2026-08-31 20:34:21 https://www.pfhub.com/
5737014 www.landmarkcash.com 200 2026-08-31 20:34:20 https://www.landmarkcash.com/
5736999 www.ebvz.de 200 2026-08-31 20:32:13 http://www.ebvz.de/
5736996 www.ebvz-blog.de 404 2026-08-31 20:32:12 http://www.ebvz-blog.de/
5736992 www.retail-systems.com 200 2026-08-31 20:31:44 https://www.retail-systems.com/
5736991 www.hitech.org.nz 200 2026-08-31 20:31:43 https://www.hitech.org.nz/
5736990 toha.comiw.com 200 2026-08-31 20:31:35 https://toha.comiw.com/
5736989 htk.vaa.jp 200 2026-08-31 20:31:31 https://htk.vaa.jp/
5736988 t.vaa.jp 200 2026-08-31 20:31:27 https://t.vaa.jp/
5736987 www.youtube.vaa.jp 200 2026-08-31 20:31:24 https://www.youtube.vaa.jp/
5736986 r.vaa.jp 200 2026-08-31 20:31:18 https://r.vaa.jp/
5736985 tenki.vaa.jp 200 2026-08-31 20:31:13 https://tenki.vaa.jp/
5736984 jpger.info 200 2026-08-31 20:30:41 http://jpger.info/
5736973 cpds.kentsu.co.jp 200 2026-08-31 20:30:13 https://cpds.kentsu.co.jp/
5736971 www.shizuoka-bluerevs.com 200 2026-08-31 20:30:08 https://www.shizuoka-bluerevs.com/
5736970 www.senmonshi.com 200 2026-08-31 20:30:05 http://www.senmonshi.com/
5736963 www.rusarticles.com 200 2026-08-31 20:29:54 http://www.rusarticles.com/
5736957 mdp.brunaircon.mom 200 2026-08-31 20:28:57 https://mdp.brunaircon.mom/
5736955 gate.bg 200 2026-08-31 20:27:58 https://gate.bg/
5736954 tahilborsa.com 200 2026-08-31 20:27:57 https://tahilborsa.com/
5736953 bursacereale.com 200 2026-08-31 20:27:55 https://bursacereale.com/
5736952 grainsprices.com 200 2026-08-31 20:27:53 https://grainsprices.com/
5736948 www.promobit.com.br 200 2026-08-31 20:27:44 https://www.promobit.com.br/
5736947 meliuz.gupy.io 200 2026-08-31 20:27:41 https://meliuz.gupy.io/
5736946 meliuz.onelink.me 403 2026-08-31 20:27:40 https://meliuz.onelink.me/
5736944 restec-expo.com 200 2026-08-31 20:27:35 https://restec-expo.com/
5736934 www.truciolisavonesi.it 200 2026-08-31 20:27:01 http://www.truciolisavonesi.it/
5736933 www.truciolisavonesi.it 200 2026-08-31 20:26:52 https://www.truciolisavonesi.it/
5736927 policeetrealites.com 200 2026-08-31 20:26:48 https://policeetrealites.com/
5736926 www.lci.fr 200 2026-08-31 20:26:47 https://www.lci.fr/
5736923 www.nationaleceworkforcecenter.org 200 2026-08-31 20:26:43 https://www.nationaleceworkforcecenter.org/
5736917 go.talknote.com 200 2026-08-31 20:26:39 https://go.talknote.com/
5736916 company.talknote.com 200 2026-08-31 20:26:38 https://company.talknote.com/
5736912 www.howajapan.com 200 2026-08-31 20:26:29 https://www.howajapan.com/
5736906 webmail.aceweb.com 200 2026-08-31 20:26:20 https://webmail.aceweb.com/
5736897 tvibo.ru 200 2026-08-31 20:25:50 http://tvibo.ru/
5736893 krasnoeibeloe.servicecdn.ru 200 2026-08-31 20:25:42 https://krasnoeibeloe.servicecdn.ru/
5736883 www.plfon.pl 200 2026-08-31 20:25:39 https://www.plfon.pl/
5736881 pendekarmaboek.wordpress.com 200 2026-08-31 20:25:35 https://pendekarmaboek.wordpress.com/
5736880 kbbwisdom.wordpress.com 200 2026-08-31 20:25:34 https://kbbwisdom.wordpress.com/
5736879 ceritaserubb.wordpress.com 200 2026-08-31 20:25:34 https://ceritaserubb.wordpress.com/
5736876 services.wnymedia.net 200 2026-08-31 20:25:32 https://services.wnymedia.net/
5736874 moneylan.ru 200 2026-08-31 20:25:27 https://moneylan.ru/
5736873 lukyanov.support-desk.ru 200 2026-08-31 20:25:26 https://lukyanov.support-desk.ru/
5736872 release-me.ru 200 2026-08-31 20:25:25 https://release-me.ru/
5736871 release-me.ru 200 2026-08-31 20:25:17 http://release-me.ru/
5736869 web.optibelt.com 200 2026-08-31 20:25:15 https://web.optibelt.com/
5736865 mobility-drive.com 200 2026-08-31 20:25:15 https://mobility-drive.com/
5736860 norfolk-sheriff.com 200 2026-08-31 20:25:08 https://norfolk-sheriff.com/
5736859 www.mynorfolk.org 200 2026-08-31 20:25:06 https://www.mynorfolk.org/
5736858 norfolk-va.cablecast.tv 200 2026-08-31 20:25:04 https://norfolk-va.cablecast.tv/
5736855 www.kombor.com 200 2026-08-31 20:24:56 https://www.kombor.com/
5736847 leilo.vagas.solides.com.br 200 2026-08-31 20:21:25 https://leilo.vagas.solides.com.br/
5736846 www.hastapublica.com.br 200 2026-08-31 20:21:21 https://www.hastapublica.com.br/
5736845 www.cflogistica.com.br 200 2026-08-31 20:21:16 https://www.cflogistica.com.br/
5736844 leilo.com.br 200 2026-08-31 20:21:14 https://leilo.com.br/
5736837 officialstore.com 200 2026-08-31 20:20:45 https://officialstore.com/
5736834 picasaweb.google.fr 404 2026-08-31 20:20:40 http://picasaweb.google.fr/
5736831 www.jlist.com 200 2026-08-31 20:20:39 http://www.jlist.com/
5736824 emkrsv7uicp.exactdn.com 200 2026-08-31 20:20:21 https://emkrsv7uicp.exactdn.com/
5736823 clickomi.com 200 2026-08-31 20:20:19 https://clickomi.com/
5736819 skin-skin12.sl0917.cafe24.com 200 2026-08-31 20:19:58 http://skin-skin12.sl0917.cafe24.com/
5736816 my.anyterm.org 401 2026-08-31 20:18:22 http://my.anyterm.org/
5736815 my.anyterm.org 401 2026-08-31 20:18:15 https://my.anyterm.org/
5736814 chezphil.org 200 2026-08-31 20:18:14 http://chezphil.org/
5736812 www.turboweb.co.nz 200 2026-08-31 20:18:11 https://www.turboweb.co.nz/
5736809 tuhura.nz 200 2026-08-31 20:18:01 https://tuhura.nz/
5736808 www.forsythbarr.co.nz 200 2026-08-31 20:17:53 https://www.forsythbarr.co.nz/
5736798 www.click-vacances.com 200 2026-08-31 20:17:31 https://www.click-vacances.com/
5736797 www.12bookhotels.com 200 2026-08-31 20:17:30 https://www.12bookhotels.com/
5736796 www.reimschampagne-chapter.com 200 2026-08-31 20:17:26 https://www.reimschampagne-chapter.com/
5736795 www.iutbethune.org 200 2026-08-31 20:17:25 https://www.iutbethune.org/
5736794 www.corse24.com 200 2026-08-31 20:17:24 https://www.corse24.com/
5736769 www.answer-creation.co.jp 200 2026-08-31 20:16:00 https://www.answer-creation.co.jp/
5736763 www.icagile.com 200 2026-08-31 20:15:30 https://www.icagile.com/
5736762 www.ultimatesoftware.com 200 2026-08-31 20:15:29 https://www.ultimatesoftware.com/
5736761 agilecraft.com 200 2026-08-31 20:15:28 https://agilecraft.com/
5736760 www.i-guazu.co.jp 200 2026-08-31 20:15:27 https://www.i-guazu.co.jp/
5736757 www.concupisco.com 200 2026-08-31 20:15:19 http://www.concupisco.com/
5736756 www.concupisco.com 200 2026-08-31 20:15:12 https://www.concupisco.com/
5736755 concupisco-com.tumblr.com 200 2026-08-31 20:15:11 https://concupisco-com.tumblr.com/
5736751 www.texasbcs.com 200 2026-08-31 20:15:08 https://www.texasbcs.com/
5736750 texasmowingsolutions.com 200 2026-08-31 20:15:08 https://texasmowingsolutions.com/
5736749 www.virginiahighlandsbcs.com 200 2026-08-31 20:15:06 https://www.virginiahighlandsbcs.com/
5736741 2025.erpacongress.com 200 2026-08-31 20:14:21 https://2025.erpacongress.com/
5736739 www.erpacongress.com 200 2026-08-31 20:14:19 https://www.erpacongress.com/
5736733 mfs.kfintech.com 200 2026-08-31 20:13:44 https://mfs.kfintech.com/
5736731 www.axisamc.com 200 2026-08-31 20:13:26 https://www.axisamc.com/
5736729 www.msllearning.com 200 2026-08-31 20:11:22 https://www.msllearning.com/
5736726 www.tvojeedecko.cz 200 2026-08-31 20:11:18 https://www.tvojeedecko.cz/
5736718 profile.playstation.com 404 2026-08-31 20:11:04 https://profile.playstation.com/